Location: Bullecourt
(50.1913°N, 2.9281°E)
Time: 13:35:58
(UTC+00:00)

Daily predictions for brighter satellites

Satellite Brightness Start Highest point End
(mag) Time Altitude Azimuth Time Altitude Azimuth Time Altitude Azimuth
BREEZE-M DEB (TANK) 3.4 19:11:31 10° WSW 19:14:59 66° SSE 19:26:11 10° ENE
CSL-04 Rocket 4.4 19:20:41 10° S 19:25:51 55° W 19:31:03 10° NNW
Ariane Rocket 3.2 19:20:58 10° SSE 19:25:55 58° ENE 19:30:53 10° N
Cosmos 614 Rocket 4.2 19:22:02 10° S 19:26:56 47° ESE 19:31:49 10° NNE
COSMOS 2487 3.8 19:25:06 10° SW 19:28:23 44° WNW 19:31:41 10° NNE
Cosmos 2251 Rocket 3.6 19:23:20 10° S 19:28:38 66° ESE 19:33:57 10° NNE
FALCON 9 DEB 3.1 19:25:18 10° WSW 19:28:43 76° SSE 19:32:09 10° ENE
ATLAS 3B R/B 3.3 19:22:41 10° NW 19:29:35 63° SW 19:36:47 10° SSE
Cosmos 2279 Rocket 4.2 19:28:01 10° SSE 19:33:54 49° E 19:39:51 10° NNE
Cosmos 1980 3.8 19:32:00 10° NNW 19:37:42 77° ENE 19:43:24 10° SSE
SL-16 R/B 3.2 19:32:58 10° NNW 19:38:09 34° NE 19:43:17 10° ESE
Cosmos 2026 Rocket 4.1 19:32:07 10° N 19:38:14 83° W 19:44:22 10° S
MOS 1 4.3 19:33:39 10° SSE 19:39:17 78° ENE 19:44:58 10° NNW
USA 102 3.7 19:37:38 10° NNE 19:39:29 20° N 20:25:41 10° NNW
SME Rocket 3.7 19:35:50 10° NNE 19:39:42 67° WNW 19:44:41 10° SSW
Cosmos 2151 3.7 19:35:54 10° N 19:39:54 36° ENE 19:43:52 10° SE
Cosmos-2242 4.3 19:36:46 10° SE 19:40:04 22° E 19:43:21 10° NE
USA 215 3.7 19:35:24 10° E 19:41:49 60° NNE 19:48:15 10° WNW
FALCON 9 DEB 4.3 19:41:58 10° S 19:44:12 19° SE 19:46:26 10° E
SPOT 3 Rocket 3.9 19:41:16 10° SE 19:46:13 48° ENE 19:51:11 10° N
Cosmos 1455 2.9 19:44:04 10° SSW 19:47:44 56° WNW 19:51:26 10° N
COSMOS 2455 4.1 19:44:37 10° SSE 19:48:47 20° ESE 19:52:59 10° ENE
ATLAS 5 CENTAUR R/B 4.2 19:47:44 10° WNW 19:51:06 21° NNW 19:54:52 10° NE
SL-4 R/B 3.1 19:47:25 10° SSW 19:51:07 27° SE 19:55:01 10° E
IRS-1A Rocket 4.4 19:46:01 10° SSE 19:51:38 86° WSW 19:57:25 10° NNW
Cosmos 2219 Rocket 3.8 19:47:05 10° NW 19:52:07 33° WSW 19:57:07 10° SSW
USA 186 3.7 19:51:37 10° SSW 19:54:32 30° W 19:57:20 10° NNW
Cosmos 1076 Rocket 3.5 19:51:51 10° N 19:56:14 89° E 20:00:33 10° S
COSMOS 2428 4.2 19:51:14 10° NW 19:56:26 36° WSW 20:01:36 10° S
Cosmos 2266 Rocket 4.4 19:50:26 10° N 19:56:38 49° ENE 20:02:36 10° SSE
IGS 5A 3.8 19:54:20 11° SE 19:58:09 48° ENE 20:02:10 10° N
ATLAS 5 CENTAUR R/B 3.3 19:57:24 10° WSW 19:58:19 12° SW 19:59:24 10° SSW
OBJECT-B 2.1 19:56:09 10° S 19:59:13 40° W 20:02:20 10° NNW
Landsat 7 4.2 19:55:13 11° SE 19:59:36 48° ENE 20:04:12 10° N
Cosmos 2292 Rocket 4.3 19:56:01 10° N 20:02:46 87° E 20:07:43 10° S
Cosmos 44 4.1 19:58:30 10° SW 20:03:40 63° NW 20:09:04 10° NE
Cosmos 1634 Rocket 4.4 19:57:46 10° SSW 20:04:01 71° WNW 20:10:16 10° N
Cosmos 1356 4.2 20:00:47 10° NNW 20:04:09 52° W 20:07:28 10° S
Cosmos 2344 3.6 19:58:28 10° SW 20:05:55 90° NW 20:14:05 10° NE
ARIANE 5 R/B 3.7 20:04:04 15° ESE 20:06:59 29° ENE 20:10:45 10° N
Cosmos 407 Rocket 3.5 20:02:27 10° S 20:07:27 57° ESE 20:12:33 10° NNE
USA 245 4.0 20:05:50 17° ESE 20:07:40 26° ENE 20:10:13 10° NNE
IRIDIUM 104 4.3 20:06:32 10° S 20:11:44 78° E 20:16:59 10° N
Orbus 7S? 3.6 20:08:48 10° WSW 20:11:47 76° NNW 20:17:46 10° ENE
Cosmos 1023 Rocket 4.5 20:07:34 10° S 20:12:32 57° ESE 20:17:31 10° NNE
Meteor 2-3 Rocket 3.8 20:06:58 10° N 20:12:43 65° ENE 20:17:47 13° SSE
MetOp-B 4.3 20:09:16 13° SSE 20:14:01 62° ENE 20:19:19 10° N
RESURS DK-1 4.1 20:10:59 10° WSW 20:14:50 36° NW 20:18:42 10° NNE
Cosmos 405 Rocket 4.0 20:12:28 10° NNW 20:16:15 41° W 20:19:57 10° SSW
Cosmos 44 Rocket 4.4 20:14:50 10° SSE 20:18:58 26° ESE 20:23:13 10° ENE
Cosmos 1140 Rocket 3.4 20:15:39 10° S 20:20:43 65° ESE 20:25:49 10° NNE
IRIDIUM 114 4.3 20:15:40 10° S 20:20:53 88° W 20:26:09 10° N
Cosmos 1812 Rocket 3.6 20:18:13 10° S 20:22:40 86° W 20:27:11 10° N
CZ-2C R/B 3.9 20:19:47 10° NNE 20:24:04 45° E 20:27:43 14° S
Cosmos 1954 Rocket 4.4 20:20:08 10° S 20:24:54 39° ESE 20:29:41 10° NE
Cosmos 2237 Rocket 2.8 20:19:57 10° NW 20:25:27 54° WSW 20:30:47 11° S
Timation 2 Rocket 4.0 20:21:13 10° SSW 20:27:39 61° ESE 20:33:50 10° NE
Abrixas rocket 2.8 20:27:46 10° WSW 20:28:20 18° WSW 20:28:20 18° WSW
Cosmos 2180 Rocket 4.5 20:24:11 10° S 20:30:20 87° W 20:36:32 10° N
Cosmos 1766 Rocket 3.7 20:29:46 10° N 20:34:02 53° ENE 20:36:22 25° SE
Cosmos 2263 Rocket 3.9 20:34:37 13° E 20:34:37 13° E 20:36:41 10° ENE
BREEZE M DEB (TANK) 2.6 20:26:44 10° WSW 20:34:41 63° SSE 20:36:34 22° E
Spot 2 Rocket 3.7 20:32:07 21° SE 20:35:23 57° ENE 20:40:22 10° N
CARTOSAT-1 4.1 20:33:27 24° SE 20:35:39 44° ENE 20:39:46 10° N
Cosmos 1633 3.5 20:36:53 10° NNW 20:40:21 46° W 20:43:20 13° SSW
Cosmos 482 Debris 3.2 20:38:27 10° WNW 20:40:33 48° N 20:40:38 48° NNE
FALCON 9 DEB 3.0 20:38:09 10° SW 20:41:07 47° SSE 20:41:37 41° ESE
Cosmos 2227 Rocket 2.1 20:36:43 10° SSW 20:42:22 76° ESE 20:48:03 10° NNE
Cosmos 2082 4.0 20:37:21 10° S 20:42:37 43° ESE 20:47:54 10° NE
Okean 3 Rocket 3.6 20:38:42 10° N 20:43:14 66° ENE 20:45:39 27° SSE
Cosmos 1655 Rocket 4.2 20:38:36 10° NNW 20:44:52 71° W 20:50:54 11° S
FALCON 9 DEB 2.7 20:42:43 10° SW 20:45:42 59° SSE 20:46:28 42° E
Lacrosse 5 rocket 2.7 20:42:27 10° NW 20:46:24 37° NNE 20:49:59 13° ENE
CZ-4C R/B 4.5 20:43:07 10° WNW 20:47:59 26° N 20:53:42 10° NE
Cosmos 2297 Rocket 2.3 20:43:23 10° SSW 20:49:02 80° WNW 20:54:45 10° NNE
Cosmos 468 Rocket 4.1 20:44:06 10° NNW 20:49:12 59° ENE 20:51:46 28° SE
Cosmos 1869 3.3 20:47:58 29° SSE 20:49:45 57° E 20:53:38 10° NNE
Resurs 01 Rocket 2.6 20:46:10 11° S 20:50:11 46° W 20:54:30 10° NNW
Genesis I 4.5 20:46:48 10° NW 20:50:28 34° WSW 20:52:33 20° S
Meteor 1-4 Rocket 2.6 20:50:30 40° SE 20:51:22 52° E 20:54:50 10° NNE
NOSS 3-1 (A) 4.4 20:44:37 10° NW 20:51:34 54° NE 20:57:37 19° ESE
ATLAS 2AS CENTAUR R/B 4.3 20:44:46 10° W 20:52:11 42° NNW 20:59:21 10° NE
Cosmos 841 Rocket 4.4 20:49:07 10° N 20:53:53 35° NE 20:56:15 24° ESE
FALCON 9 DEB 2.6 20:54:43 10° WSW 20:57:45 75° SSE 20:58:12 59° E
Cosmos 2219 3.4 20:52:42 10° SW 20:58:19 76° WNW 21:03:59 10° NNE
Cosmos 2084 Rocket 3.2 20:57:23 10° SW 21:01:23 85° NW 21:05:29 10° NE
Cosmos 1763 Rocket 3.4 20:56:59 10° NNW 21:02:04 71° ENE 21:04:17 34° SE
Cosmos 1190 Rocket 4.3 21:00:01 10° SSW 21:05:14 67° WNW 21:10:27 10° NNE
Terra 2.2 21:03:52 33° ESE 21:05:34 48° ENE 21:10:10 10° N
FALCON 9 DEB 3.8 21:02:24 10° W 21:05:47 52° N 21:07:41 23° ENE
Meteor 2-8 Rocket 4.4 21:02:56 17° S 21:07:50 80° E 21:13:59 10° NNE
BREEZE-M DEB (TANK) 3.6 21:07:31 10° W 21:08:46 21° SW 21:08:46 21° SW
Cosmos 540 Rocket 3.9 21:04:48 10° NNW 21:09:47 48° ENE 21:11:41 33° ESE
Cosmos 921 Rocket 4.1 21:07:15 10° N 21:11:14 32° ENE 21:12:21 28° E
NOSS 3-1 (C) 4.0 21:08:16 10° NW 21:15:35 85° NE 21:20:23 29° SE
SPOT 5 2.7 21:14:08 39° SSE 21:15:51 80° ENE 21:20:44 10° NNW
Cosmos-2242 4.1 21:13:13 10° SSW 21:17:21 43° WNW 21:21:28 10° N
SPOT 1/Viking Rocket 4.1 21:14:17 21° S 21:17:37 54° W 21:22:46 10° NNW
Meteor 2-2 Rocket 4.4 21:15:41 33° SSE 21:18:00 55° E 21:23:33 10° NNE
FALCON 9 DEB 3.4 21:16:35 10° WSW 21:18:54 48° WSW 21:18:54 48° WSW
Cosmos 1842 Rocket 3.7 21:20:26 47° SE 21:21:12 53° E 21:25:34 10° NNE
SL-16 R/B 2.7 21:17:00 10° NW 21:22:32 53° WSW 21:25:19 28° S
Cosmos 676 Rocket 4.1 21:18:26 10° SSW 21:23:38 75° WNW 21:28:50 10° NNE
USA 215 3.3 21:21:35 32° SE 21:24:48 70° SW 21:31:21 10° WNW
SL-08 ROCKET BODY 4.4 21:23:21 10° N 21:29:24 66° ENE 21:31:37 39° SE
SL-4 R/B 2.1 21:25:52 10° WSW 21:30:22 79° SSE 21:33:32 21° ENE
Cosmos 1408 Rocket 3.6 21:29:27 10° NNW 21:33:47 74° W 21:34:51 49° SSW
COSMOS 2455 2.8 21:27:56 10° SW 21:33:58 88° NW 21:40:03 10° NE
ERS-1 Rocket 3.1 21:33:52 38° S 21:35:47 69° WSW 21:40:49 10° NNW
ATLAS 5 CENTAUR R/B 4.3 21:33:52 10° NW 21:37:28 20° NNE 21:41:29 10° ENE
Cosmos 1862 3.3 21:37:05 10° NNW 21:41:03 73° W 21:41:30 64° SSW
Sich 1 4.0 21:37:28 10° N 21:41:22 33° ENE 21:41:28 33° ENE
Cosmos 1805 Rocket 4.1 21:37:35 10° N 21:41:45 42° ENE 21:41:58 42° E
Cosmos 2221 2.3 21:41:54 64° S 21:42:32 86° E 21:46:51 10° N
ARIANE 5 R/B 3.8 21:41:36 26° SW 21:43:21 37° W 21:47:25 10° NNW
Meteor 2-15 Rocket 4.3 21:43:55 34° S 21:46:47 89° E 21:52:54 10° N
Cosmos 1943 3.2 21:42:54 10° NNW 21:48:33 72° ENE 21:50:06 48° SE
Cosmos 1745 Rocket 4.0 21:45:11 10° N 21:51:30 69° ENE 21:53:25 45° SE
Cosmos 1570 Rocket 4.0 21:46:50 10° NNW 21:52:08 69° ENE 21:53:15 53° ESE
Cosmos 1743 Rocket 3.3 21:48:17 10° N 21:52:39 87° W 21:53:02 74° S
SeaSat 1 3.9 21:48:42 10° NE 21:51:19 22° E 21:51:19 22° E
NOSS 2-1 (C) 3.9 21:56:12 41° NNE 21:56:12 41° NNE 21:58:43 10° NE
Cosmos 1709 Rocket 4.4 21:50:38 10° N 21:56:37 46° ENE 21:58:09 39° ESE
Cosmos 44 Rocket 3.8 21:55:03 10° SW 22:00:08 65° NW 22:05:22 10° NE
NOSS 2-1 (D) 3.8 22:02:34 45° NNE 22:02:34 45° NNE 22:05:19 10° NE
Cosmos 1633 Rocket 4.3 21:58:28 10° N 22:02:12 29° ENE 22:02:12 29° ENE
TSX-5 4.4 22:01:04 25° SW 22:03:37 62° NW 22:07:25 10° NNE
Cosmos 1606 3.2 22:06:56 54° NNE 22:06:56 54° NNE 22:09:57 10° NNE
BREEZE-M DEB (TANK) 3.9 21:59:51 10° WNW 22:06:19 39° SW 22:06:19 39° SW
Cosmos 1741 Rocket 4.0 22:05:12 43° SSW 22:06:59 83° WNW 22:12:18 10° NNE
S3M 4.0 22:05:25 49° SSE 22:07:11 70° E 22:13:33 10° NNE
Cosmos 1850 Rocket 4.1 22:08:07 40° SW 22:09:59 76° WNW 22:15:17 10° NNE
Cosmos 1500 Rocket 3.9 22:06:16 10° NNW 22:10:40 58° W 22:11:06 55° WSW
Cosmos 1666 Rocket 4.3 22:08:50 10° N 22:12:59 43° ENE 22:12:59 43° ENE
Cosmos 2263 Rocket 2.0 22:16:15 62° S 22:17:08 76° ESE 22:22:44 10° NNE
Aureole 1 Rocket 3.4 22:17:34 48° SW 22:19:03 79° WNW 22:23:30 10° NNE
H-2A R/B 4.2 22:16:18 10° N 22:20:23 48° WNW 22:21:10 42° WSW
Cosmos 1386 Rocket 4.4 22:14:51 10° NNW 22:20:54 78° W 22:22:22 53° S
USA 229 DEB 4.0 22:17:40 10° NW 22:24:52 64° SW 22:27:01 47° S
USA 229 4.0 22:17:46 10° NW 22:24:58 65° SW 22:27:07 47° S
Lacrosse 5 rocket 1.6 22:21:36 10° WNW 22:25:34 74° NW 22:25:34 74° NW
Cosmos 2227 Rocket 4.3 22:22:20 10° W 22:27:02 26° NW 22:31:46 10° NNE
Cosmos 1782 4.5 22:28:48 25° NE 22:28:48 25° NE 22:31:05 10° NNE
Cosmos 1844 Rocket 4.2 22:30:56 22° E 22:30:56 22° E 22:34:03 10° NE
SL-24 DEB 4.3 22:32:22 66° ENE 22:32:22 66° ENE 22:36:46 10° N
Cosmos 2208 Rocket 4.0 22:26:57 10° NNW 22:32:17 72° WSW 22:32:47 67° SSW
Cosmos 1151 Rocket 4.2 22:34:17 34° ENE 22:34:17 34° ENE 22:37:19 10° NNE
ALOS 2 3.3 22:35:37 43° ENE 22:35:37 43° ENE 22:39:34 10° N
Cosmos 1553 Rocket 4.4 22:33:03 34° SW 22:35:33 55° WNW 22:41:35 10° N
Cosmos 841 Rocket 4.2 22:30:59 10° NW 22:35:51 41° WSW 22:36:20 40° WSW
Cosmos 1603 4.0 22:31:42 10° NW 22:37:14 52° WSW 22:37:52 49° SW
CZ-4C R/B 4.4 22:32:55 10° NW 22:38:32 30° NNE 22:45:05 10° ENE
NOSS 3-1 (A) 4.3 22:35:31 10° NW 22:42:49 58° SW 22:45:03 46° S
Terra 3.4 22:42:44 23° WSW 22:43:34 25° W 22:47:28 10° NW
Cosmos 1933 4.0 22:45:09 53° NNE 22:45:09 53° NNE 22:48:20 10° N
Cosmos 921 Rocket 4.3 22:45:34 10° NW 22:49:08 32° W 22:49:08 32° W
Meteor 2-17 Rocket 4.4 22:48:26 10° NNW 22:54:34 73° W 22:55:34 61° SSW
Meteor 1-14 Rocket 4.2 22:57:56 10° N 23:03:58 77° ENE 23:04:37 69° SE
Cosmos 1437 Rocket 4.0 23:05:15 37° NW 23:05:15 37° NW 23:08:06 10° N
SL-4 R/B 2.9 23:05:33 10° W 23:09:09 52° WNW 23:09:09 52° WNW
NOSS 2-2 (C) 4.3 23:08:29 10° NW 23:13:40 87° NE 23:14:35 67° SE
Cosmos 2184 Rocket 4.1 23:07:43 10° N 23:14:03 65° ENE 23:14:58 58° ESE
NOSS 2-2 (E) 4.3 23:09:32 10° NW 23:14:53 82° SW 23:15:39 70° SSE
Cosmos 2315 Rocket 4.1 23:16:01 57° SW 23:17:14 71° WNW 23:23:38 10° N
Cosmos 1515 Rocket 4.4 23:19:41 45° NE 23:19:41 45° NE 23:23:05 10° NNE
Cosmos 2278 Rocket 4.5 23:19:29 11° E 23:19:29 11° E 23:20:19 10° E
Cosmos 1666 4.2 23:17:32 10° N 23:20:00 34° NNE 23:20:00 34° NNE
ATLAS 5 CENTAUR R/B 3.3 23:18:26 10° NW 23:23:23 41° NE 23:27:06 20° E
SeaSat 1 2.7 23:25:44 10° NNE 23:30:37 60° NW 23:31:05 57° W
Cosmos 1470 Rocket 4.2 23:28:43 10° NNW 23:32:15 52° NW 23:32:15 52° NW
Iridium 4 Rocket 3.8 23:38:02 56° W 23:38:05 56° W 23:43:27 10° N
Nimbus 7 Rocket 4.2 23:33:36 10° NNE 23:39:30 81° ESE 23:39:53 76° SSE
Cosmos 1633 Rocket 4.5 23:36:11 10° NNW 23:39:17 31° WNW 23:39:17 31° WNW
Cosmos 2074 Rocket 3.8 23:34:12 10° N 23:40:30 83° W 23:41:12 71° SSW
Cosmos 1844 3.8 23:41:40 65° ESE 23:41:40 65° ESE 23:47:09 10° NE
COSMOS 2406 4.3 23:37:22 10° NNW 23:42:41 39° NE 23:44:55 28° E
Cosmos 1503 Rocket 4.1 23:44:44 63° ENE 23:44:44 63° ENE 23:49:22 10° NNE
USA 281 3.4 23:43:08 46° ESE 23:45:06 68° ENE 23:51:38 10° NNW
Cosmos 1812 4.1 23:48:00 39° N 23:48:00 39° N 23:50:32 10° N
Cosmos 1933 Rocket 4.3 23:44:57 10° NNW 23:48:19 49° NW 23:48:19 49° NW
